Regional Weather Roundup
Issued by NWS Cleveland, OH

Home | Current Version | Previous Version | Graphics & Text | Print | Product List | Glossary On
Versions: 1 2 3 4 5 6 7 8 9 10 11 12 13 14 15 16 17 18 19 20 21 22 23 24 25 26 27 28 29 30 31 32 33 34 35 36 37 38 39 40 41 42 43 44 45 46 47 48 49 50
954
ASUS41 KCLE 230310
RWRCLE
OHIO REGIONAL WEATHER ROUNDUP
NATIONAL WEATHER SERVICE CLEVELAND, OH
1100 PM EDT THU JUN 22 2017

NOTE: "FAIR" INDICATES FEW OR NO CLOUDS BELOW 12,000 FEET WITH NO
SIGNIFICANT WEATHER AND/OR OBSTRUCTIONS TO VISIBILITY.

OHZ001>008-015>018-024>027-034-035-043-044-230400-
   NORTHWEST OHIO

CITY           SKY/WX    TMP DP  RH WIND       PRES   REMARKS
DEFIANCE       MOCLDY    76  66  71 S13       29.82S
FINDLAY        PTCLDY    77  65  66 S15       29.85S
TOLEDO EXPRESS CLEAR     75  68  78 S10       29.81S
TOLEDO EXEC    PTCLDY    78  68  71 S13       29.83R
LIMA           MOCLDY    75  67  76 S9        29.87S
$$

OHZ009>014-019>023-028>033-038-089-230400-
   NORTHEAST OHIO

CITY           SKY/WX    TMP DP  RH WIND       PRES   REMARKS
CLE-HOPKINS    CLOUDY    80  69  69 S10       29.88S
CLE-LAKEFRONT  CLOUDY    80  68  66 S12       29.85R
CUY CO. ARPT   MOCLDY    81  70  69 SW7       29.87S
LORAIN-ELYRIA  PTCLDY    78  62  57 SW10      29.87S
ASHTABULA      PTCLDY    77  69  76 S10       29.88S
AKRON-CANTON   CLOUDY    78  68  71 S10G23    29.92S
WOOSTER        CLOUDY    77  65  66 SW14      29.92S
MANSFIELD      CLOUDY    75  66  73 S17       29.92S
YOUNGSTOWN     MOCLDY    76  67  73 S8        29.91F
$$

OHZ042-051>053-060>062-070>072-077>081-230400-
  SOUTHWEST OHIO

CITY           SKY/WX    TMP DP  RH WIND       PRES   REMARKS
CINC-COVINGTON LGT RAIN  70  69  97 S13       29.89S
CINC-LUNKEN    LGT RAIN  70  70 100 S10       29.90R
HAMILTON       LGT RAIN  70  70 100 VRB7      29.90S
DAYTON         CLOUDY    73  68  84 S13G22    29.90S
WRIGHT-PAT AFB MOCLDY    73  70  93 S14       29.89F
DAYTON GENERAL CLOUDY    71  68  90 S13       29.90F
WILMINGTON     LGT RAIN  70  70 100 S5        29.91S
$$

OHZ036-037-039>041-045>050-054>059-063>069-073>076-082>088-230400-
  CENTRAL AND SOUTHEAST OHIO

CITY           SKY/WX    TMP DP  RH WIND       PRES   REMARKS
COLUMBUS       CLOUDY    76  68  76 S12       29.92S
OSU AIRPORT    CLOUDY    75  68  78 S10       29.92S
BOLTON FIELD   NOT AVBL
RICKENBACK AFB LGT RAIN  73  68  85 S12       29.93S
NEWARK         LGT RAIN  75  67  76 SW7       29.93S
MARION         CLOUDY    75  66  73 S12       29.91R
LANCASTER      CLOUDY    74  67  78 S9        29.95R
ZANESVILLE     CLOUDY    75  66  73 S8        29.95S
NEW PHILLY     NOT AVBL
$$




USA.gov is the U.S. government's official web portal to all federal, state and local government web resources and services.